Location: Joplin, MO
(37.0842°N, 94.5133°W)
Time: 21:39:29
(UTC+02:00)

Transit 2A Rocket - Pass Details

Date: 31 March 2023
Orbit: 584 x 914 km, 66.7° (Epoch: 06 June)

Event Time Altitude Azimuth Distance (km) Brightness Sun altitude
Rises 04:52:06 0° 314° (NW) 3,531 9.6 -26.2°
Reaches altitude 10° 04:55:34 10° 295° (WNW) 2,554 8.7 -26.8°
Maximum altitude 04:59:08 17° 258° (WSW) 2,073 7.7 -27.4°
Drops below altitude 10° 05:02:35 10° 220° (SW) 2,443 7.7 -28.0°
Enters shadow 05:04:37 - 206° (SSW) 2,952 8.0 -28.4°
Sets 05:05:49 0° 200° (SSW) 3,309 - -28.6°
